Swisher, IA

7:52 PM CST on February 06, 2016 (GMT -0600)
The Eastern Iowa Airport

Weather History for KCID - August, 2013

Change the Weather History Date:

Saturday, August 24, 2013

  Actual Average Record
Temperature  
Mean Temperature 76 °F 70 °F  
Max Temperature 88 °F 81 °F 100 °F (1947)
Min Temperature 63 °F 60 °F 41 °F (1942)
Degree Days  
Heating Degree Days 0 1  
Month to date heating degree days 6 5  
Since 1 June heating degree days 47 38  
Since 1 July heating degree days 19 9  
Cooling Degree Days 11 6  
Month to date cooling degree days 120 163  
Year to date cooling degree days 600 630  
Since 1 June cooling degree days 526 581  
Growing Degree Days 26 (Base 50)    
Moisture  
Dew Point 66 °F    
Average Humidity 71    
Maximum Humidity 87    
Minimum Humidity 55    
Precipitation  
Precipitation 0.00 in 0.14 in 1.31 in (1962)
Month to date precipitation 0.11 3.51  
Year to date precipitation 29.40 24.33  
Sea Level Pressure  
Sea Level Pressure 30.14 in    
Wind  
Wind Speed 8 mph (SE)    
Max Wind Speed 15 mph    
Max Gust Speed 21 mph    
Visibility 9 miles    
Events      
T = Trace of Precipitation, MM = Missing Value Source: NWS Daily Summary

Daily Weather History Graph

Daily Weather History Graph

Search for Another Location

Airport or City:

Trip Planner

Search our weather history database for the weather conditions in past years. The results will help you decide how hot, cold, wet, or windy it might be!

Date:

Astronomy

Aug. 24, 2013 Rise Set
Actual Time 6:24 AM CDT 7:52 PM CDT
Civil Twilight 5:55 AM CDT 8:22 PM CDT
Nautical Twilight 5:20 AM CDT 8:57 PM CDT
Astronomical Twilight 4:42 AM CDT 9:34 PM CDT
Moon 9:42 PM CDT (8/24) 10:29 AM CDT (8/24)
Length of Visible Light 14h 26m
Length of Day
13h 28m
Waning Gibbous, 84% of the Moon is Illuminated
Aug 24
Waning Gibbous
Aug 28
Last Quarter
Sep 5
New
Sep 12
First Quarter
Sep 19
Full

Hourly Weather History & Observations

Time (CDT) Temp. Heat Index Dew Point Humidity Pressure Visibility Wind Dir Wind Speed Gust Speed Precip Events Conditions
12:52 AM 66.9 °F - 61.0 °F 81% 30.11 in 10.0 mi ESE 6.9 mph - N/A   Clear
1:52 AM 69.1 °F - 61.0 °F 75% 30.12 in 10.0 mi SE 5.8 mph - N/A   Clear
2:52 AM 68.0 °F - 61.0 °F 78% 30.13 in 10.0 mi SE 3.5 mph - N/A   Mostly Cloudy
3:52 AM 66.0 °F - 61.0 °F 84% 30.13 in 10.0 mi ESE 5.8 mph - N/A   Scattered Clouds
4:52 AM 64.0 °F - 60.1 °F 87% 30.14 in 10.0 mi ESE 5.8 mph - N/A   Partly Cloudy
5:52 AM 64.0 °F - 59.0 °F 84% 30.15 in 10.0 mi ESE 5.8 mph - N/A   Partly Cloudy
6:52 AM 64.0 °F - 59.0 °F 84% 30.17 in 9.0 mi ESE 5.8 mph - N/A   Clear
7:52 AM 68.0 °F - 61.0 °F 78% 30.19 in 10.0 mi SE 6.9 mph - N/A   Clear
8:52 AM 71.1 °F - 63.0 °F 75% 30.19 in 10.0 mi SSE 8.1 mph - N/A   Clear
9:52 AM 73.9 °F - 64.9 °F 73% 30.19 in 10.0 mi SSE 9.2 mph - N/A   Overcast
10:52 AM 78.1 °F - 66.9 °F 68% 30.18 in 10.0 mi South 10.4 mph - N/A   Partly Cloudy
11:52 AM 80.1 °F 82.7 °F 68.0 °F 67% 30.17 in 9.0 mi South 10.4 mph - N/A   Clear
12:52 PM 82.9 °F 87.0 °F 70.0 °F 65% 30.16 in 9.0 mi SSE 10.4 mph - N/A   Clear
1:52 PM 87.1 °F 92.8 °F 71.1 °F 59% 30.14 in 9.0 mi SSE 10.4 mph 17.3 mph N/A   Clear
2:52 PM 87.1 °F 92.8 °F 71.1 °F 59% 30.13 in 9.0 mi SSE 11.5 mph - N/A   Partly Cloudy
3:52 PM 88.0 °F 93.8 °F 71.1 °F 57% 30.10 in 8.0 mi SSE 13.8 mph 18.4 mph N/A   Partly Cloudy
4:52 PM 87.1 °F 92.0 °F 70.0 °F 57% 30.09 in 8.0 mi SSE 11.5 mph - N/A   Partly Cloudy
5:52 PM 86.0 °F 90.7 °F 70.0 °F 59% 30.10 in 8.0 mi SSE 10.4 mph 17.3 mph N/A   Partly Cloudy
6:52 PM 82.9 °F 87.0 °F 70.0 °F 65% 30.10 in 8.0 mi SSE 9.2 mph - N/A   Clear
7:52 PM 80.1 °F 83.2 °F 70.0 °F 71% 30.10 in 7.0 mi SE 5.8 mph - N/A   Clear
8:52 PM 78.1 °F - 70.0 °F 76% 30.11 in 9.0 mi SE 6.9 mph - N/A   Clear
9:52 PM 78.1 °F - 69.1 °F 74% 30.12 in 10.0 mi SSE 8.1 mph - N/A   Clear
10:52 PM 77.0 °F - 69.1 °F 76% 30.12 in 10.0 mi South 9.2 mph - N/A   Clear
11:52 PM 75.0 °F - 68.0 °F 79% 30.12 in 9.0 mi South 9.2 mph - N/A   Clear